AO-07 1 07530U 74089B 21091.16416994 -.00000040 00000-0 33126-4 0 9990 2 07530 101.8469 65.7717 0012226 169.0649 257.7971 12.53648000122043 UO-11 1 14781U 84021B 21091.28776871 .00000134 00000-0 22418-4 0 9994 2 14781 97.5933 94.9302 0007935 345.7969 14.3021 14.83265603974495 LO-19 1 20442U 90005G 21091.12197402 .00000019 00000-0 23611-4 0 9992 2 20442 98.7329 45.9201 0012402 33.1776 327.0183 14.32981106629757 HUBBLE 1 20580U 90037B 21091.04829878 .00000670 00000-0 29607-4 0 9994 2 20580 28.4691 217.2315 0002553 313.8307 209.1993 15.09600966499375 MET-2/21 1 22782U 93055A 21091.23063913 .00000059 00000-0 39327-4 0 9995 2 22782 82.5533 5.2025 0023029 145.2551 328.3863 13.83836222392849 AO-27 1 22825U 93061C 21091.76780441 -.00000010 00000-0 14035-4 0 9997 2 22825 98.9232 107.4816 0007386 256.2318 103.8041 14.30110258435297 IO-26 1 22826U 93061D 21091.26671447 -.00000008 00000-0 14977-4 0 9990 2 22826 98.9173 106.8839 0007986 243.8784 116.1576 14.30448364435196 FO-29 1 24278U 96046B 21091.76988465 -.00000050 00000-0 -12873-4 0 9996 2 24278 98.5729 169.8841 0350124 348.4898 10.8384 13.53102269216129 NOAA-15 1 25338U 98030A 21091.74671645 .00000022 00000-0 27588-4 0 9992 2 25338 98.6908 120.9274 0011211 140.0256 220.1751 14.26020025190316 GO-32 1 25397U 98043D 21091.09918413 -.00000001 00000-0 19289-4 0 9993 2 25397 98.7637 36.8946 0000830 6.1116 354.0072 14.23704528180488 ISS 1 25544U 98067A 21091.97112844 .00001679 00000-0 38657-4 0 9995 2 25544 51.6468 359.6895 0002923 168.0988 283.1581 15.48974095276783 NO-44 1 26931U 01043C 21091.20607408 -.00000016 00000-0 25623-4 0 9999 2 26931 67.0496 119.7970 0007380 265.6731 94.3527 14.30612126 18181 SO-50 1 27607U 02058C 21091.04731336 .00000053 00000-0 28029-4 0 9990 2 27607 64.5554 215.0407 0032649 51.5647 308.8378 14.75729380983131 CO-55 1 27844U 03031E 21091.30442519 .00000056 00000-0 44802-4 0 9996 2 27844 98.6829 100.6797 0008864 306.4248 53.6112 14.22298000921011 CO-57 1 27848U 03031J 21091.76728693 .00000041 00000-0 38626-4 0 9991 2 27848 98.6888 101.7030 0008907 319.3003 40.7508 14.21876437920944 RS-22 1 27939U 03042A 21091.85240783 .00000198 00000-0 44062-4 0 9997 2 27939 98.1267 229.5381 0013568 157.0095 203.1715 14.66962955936296 NOAA-18 1 28654U 05018A 21091.80743952 .00000104 00000-0 80685-4 0 9996 2 28654 99.0018 156.3423 0015137 136.2616 223.9757 14.12594029817716 CO-58 1 28895U 05043F 21091.12060250 .00000204 00000-0 47951-4 0 9999 2 28895 98.0452 226.1049 0018145 94.4577 265.8699 14.63886613822699 Falconsat-3 1 30776U 07006E 21091.43446928 .00006053 00000-0 14864-3 0 9999 2 30776 35.4338 234.9572 0003251 282.0222 78.0141 15.40058493781222 CO-65 1 32785U 08021C 21091.17039879 .00000374 00000-0 45718-4 0 9996 2 32785 97.6052 73.0436 0011426 258.3703 101.6233 14.88671544700743 AAUSAT2 1 32788U 08021F 21091.21127913 .00001232 00000-0 11612-3 0 9990 2 32788 97.5038 89.1217 0012125 161.1949 198.9722 14.95471609702319 DO-64 1 32789U 08021G 21091.35410265 .00001961 00000-0 12873-3 0 9990 2 32789 97.3851 129.6714 0013075 53.8007 306.4429 15.08693214705305 CO-66 1 32791U 08021J 21091.20432727 .00000421 00000-0 47598-4 0 9997 2 32791 97.5668 79.0603 0012100 218.5138 141.5219 14.91332257701268 RS-30 1 32953U 08025A 21091.76888084 .00000028 00000-0 12906-3 0 9990 2 32953 82.4994 98.6254 0020214 141.2789 218.9744 12.43101040583451 PRISM 1 33493U 09002B 21091.15810813 .00001472 00000-0 13148-3 0 9997 2 33493 98.1807 50.0202 0015067 176.5791 183.5536 14.97528721662754 NOAA-19 1 33591U 09005A 21091.76334615 .00000038 00000-0 45839-4 0 9997 2 33591 99.1902 110.5457 0013686 351.7884 8.3061 14.12458186626097 TISAT-1 1 36799U 10035E 21091.31119687 .00000515 00000-0 57280-4 0 9999 2 36799 98.2068 279.0006 0013492 105.2962 254.9748 14.91659940582032 JUGNU 1 37839U 11058B 21091.82270272 .00000324 00000-0 30928-4 0 9993 2 37839 19.9622 333.9431 0018801 327.5684 102.7923 14.12708711489726 SRMSAT 1 37841U 11058D 21091.26871277 .00000302 00000-0 20642-4 0 9994 2 37841 19.9729 47.5799 0011979 165.0316 342.0458 14.10689444488784 AO-71 1 37854U 11061E 21091.16983407 .00002246 00000-0 11728-3 0 9993 2 37854 101.7044 337.4851 0155112 285.7318 72.6834 15.08363538514839 HRBE 1 37855U 11061F 21091.63289565 .00002241 00000-0 11513-3 0 9997 2 37855 101.7183 335.2120 0167608 299.2133 59.2405 15.07400117515073 HORYU-2 1 38340U 12025D 21091.13551315 .00000276 00000-0 47914-4 0 9999 2 38340 98.2402 157.0281 0011211 196.0886 163.9968 14.76003374466983 RS-40 1 38735U 12041C 21090.73429667 -.00000002 00000-0 -84105-4 0 9996 2 38735 82.4811 181.5428 0016021 252.8196 107.1144 12.42582077393533 BEESAT-3 1 39135U 13015F 21091.23019897 .00002017 00000-0 10501-3 0 9993 2 39135 64.8657 91.4653 0008067 201.6059 158.4729 15.19114492439303 BEESAT-2 1 39136U 13015G 21091.19583256 .00001714 00000-0 91668-4 0 9991 2 39136 64.8733 97.6535 0028464 251.3932 108.4103 15.18489820438760 ZACUBE-1 1 39417U 13066B 21091.25093031 .00000421 00000-0 58502-4 0 9997 2 39417 97.5886 79.6003 0059995 55.1347 305.5487 14.81463411397640 TRITON-1 1 39427U 13066M 21091.78249693 .00000289 00000-0 53991-4 0 9992 2 39427 97.7674 43.3805 0112119 235.7484 123.3063 14.68190243394156 GOMX-1 1 39430U 13066Q 21091.75266388 .00000426 00000-0 85691-4 0 9998 2 39430 97.8120 19.2331 0150882 357.0303 3.0004 14.59570701391854 LO-74 1 39440U 13066AA 21091.18112937 .00000327 00000-0 51778-4 0 9995 2 39440 97.6688 64.3762 0081083 125.5769 235.3033 14.76193474395023 AO-73 1 39444U 13066AE 21091.21455173 .00000549 00000-0 72924-4 0 9997 2 39444 97.5798 81.9136 0058907 46.2241 314.3825 14.82359696395991 SPROUT 1 39770U 14029E 21091.76826131 .00001174 00000-0 13296-3 0 9996 2 39770 97.9071 203.1543 0010283 98.5234 261.7133 14.88286415371937 DUCHIFAT-1 1 40021U 14033M 21091.23948012 .00000885 00000-0 94740-4 0 9999 2 40021 97.9667 30.6454 0014185 61.6542 298.6105 14.91247995368771 NANOSATCBR1 1 40024U 14033Q 21091.22585918 .00000706 00000-0 78428-4 0 9990 2 40024 97.9469 25.9940 0013534 66.5931 293.6708 14.90360871368091 DTUSAT-2 1 40030U 14033W 21091.20692889 .00000476 00000-0 56688-4 0 9999 2 40030 97.9138 18.4851 0013297 71.0027 289.2629 14.88933550367822 EO-80 1 40032U 14033Y 21091.36949135 .00000432 00000-0 51997-4 0 9997 2 40032 97.9145 18.6530 0013254 71.5249 288.7407 14.88889081368347 ANTELSAT 1 40034U 14033AA 21091.16412869 .00000311 00000-0 52841-4 0 9991 2 40034 97.6861 298.5840 0059229 147.4077 213.0811 14.74432280364276 VELOX-1 1 40057U 14034E 21091.77011412 .00000467 00000-0 72238-4 0 9997 2 40057 98.3154 243.3575 0009683 307.0343 52.9981 14.78111963364214 DAURIA DX 1 1 40071U 14037C 21091.79300322 .00000175 00000-0 29867-4 0 9995 2 40071 98.4580 292.2201 0007279 298.5340 61.5136 14.81472189363944 HODOYOSHI-1 1 40299U 14070B 21091.78784075 .00000969 00000-0 42128-4 0 9990 2 40299 97.2911 167.4292 0011139 257.7848 250.2720 15.24575019355732 CHUBUSAT-1 1 40300U 14070C 21091.76979214 .00000895 00000-0 40783-4 0 9995 2 40300 97.2498 157.7842 0017971 279.7610 221.0369 15.23053359355382 QSAT-EOS 1 40301U 14070D 21091.82884110 .00002758 00000-0 10197-3 0 9998 2 40301 97.2595 165.3937 0022756 243.3410 258.0407 15.28312631355955 FIREBIRD FU3 1 40377U 15003B 21091.31293453 .00004425 00000-0 16345-3 0 9990 2 40377 99.0867 216.4829 0119738 71.6350 289.7860 15.21934206341062 FIREBIRD FU4 1 40378U 15003C 21091.62057283 .00004784 00000-0 17603-3 0 9990 2 40378 99.0872 216.9824 0119805 70.4417 290.9705 15.21986490341115 GRIFEX 1 40379U 15003D 21091.80323560 .00004174 00000-0 17011-3 0 9991 2 40379 99.0836 207.1746 0130312 100.4661 261.1282 15.17720678340569 NO-84 1 40654U 15025D 21090.09538402 .00023552 00000-0 19501-3 0 2444 2 40654 54.9835 50.2832 0084705 215.1906 144.3312 15.65513646213728 DEORBITSAIL 1 40719U 15032E 21091.19289028 .00000554 00000-0 85088-4 0 9991 2 40719 97.8382 338.2342 0016516 2.9418 357.1886 14.77289840308579 NUDT-PHONESAT 1 40900U 15049B 21091.87048906 .00003944 00000-0 15647-3 0 9993 2 40900 97.4240 106.5019 0013550 54.8108 65.1312 15.25873236307148 XW-2A 1 40903U 15049E 21091.81631648 .00003508 00000-0 76800-4 0 9996 2 40903 97.2456 146.5185 0010797 298.2306 152.3889 15.44755393310966 XW-2C 1 40906U 15049H 21091.83658860 .00000882 00000-0 48470-4 0 9990 2 40906 97.4863 95.1554 0016352 93.1905 28.5842 15.16586065305955 XW-2D 1 40907U 15049J 21091.84617310 .00001127 00000-0 60477-4 0 9991 2 40907 97.4850 94.9334 0015729 90.0680 29.3010 15.16887447305985 LILACSAT-2 1 40908U 15049K 21091.84073097 .00000375 00000-0 23993-4 0 9996 2 40908 97.5034 92.8826 0017399 103.1195 15.9845 15.14347365305633 XW-2E 1 40909U 15049L 21091.85707472 .00001855 00000-0 90982-4 0 9995 2 40909 97.4667 98.8545 0015044 79.0789 40.3416 15.19279236306301 XW-2F 1 40910U 15049M 21091.83589184 .00001728 00000-0 86164-4 0 9999 2 40910 97.4733 97.9092 0016168 78.3565 44.0956 15.18781210306091 XW-2B 1 40911U 15049N 21091.84482818 .00001054 00000-0 56915-4 0 9990 2 40911 97.4855 95.6226 0015605 90.7433 28.7616 15.16805816305872 DCBB 1 40912U 15049P 21091.82893609 .00002066 00000-0 95238-4 0 9998 2 40912 97.4468 102.2535 0015957 55.3606 69.0808 15.21286533306541 TW-1A 1 40928U 15051D 21091.87757122 .00004958 00000-0 10668-3 0 9997 2 40928 97.0834 118.6312 0008889 202.0790 282.2998 15.45050929309867 IO-86 1 40931U 15052B 21090.73725726 .00000868 00000-0 31835-4 0 9997 2 40931 5.9973 86.5640 0012709 19.9701 340.1057 14.76670360297791 LQSat 1 40958U 15057A 21091.79250831 .00000056 00000-0 16175-4 0 9997 2 40958 97.8118 151.1382 0016955 306.2871 53.6758 14.73164677294955 ATHENOXAT-1 1 41168U 15077C 21091.39032537 .00003120 00000-0 12415-3 0 9997 2 41168 14.9874 107.4590 0010911 179.5177 217.8870 15.15401577293070 ChubuSat-2 1 41338U 16012B 21090.96949696 .00000533 00000-0 34528-4 0 9996 2 41338 31.0037 318.5978 0013466 85.7717 274.4457 15.00480300280959 ChubuSat-3 1 41339U 16012C 21091.86492531 .00000504 00000-0 32210-4 0 9992 2 41339 31.0129 310.2105 0013184 101.5614 258.6501 15.00633109281089 Horyu-4 1 41340U 16012D 21091.78876955 .00000884 00000-0 59502-4 0 9995 2 41340 31.0050 295.2023 0013594 132.0416 228.1379 15.01810635281255 OUFTI-1 1 41458U 16025C 21091.30114350 .00002252 00000-0 11309-3 0 9994 2 41458 98.1307 223.8316 0158546 320.2359 38.7332 15.08218102270845 e-st@r-II 1 41459U 16025D 21091.83692560 .00001840 00000-0 94265-4 0 9992 2 41459 98.1267 223.5447 0160099 320.9887 37.9891 15.07676374270874 AAUSAT4 1 41460U 16025E 21091.81890222 .00002614 00000-0 12648-3 0 9991 2 41460 98.1282 227.0278 0147616 306.1234 52.6415 15.10545707271142 LO-87 1 41557U 16033B 21091.85133362 .00002477 00000-0 90073-4 0 9992 2 41557 97.3916 186.2489 0014127 141.3637 359.8012 15.29120540269821 NuSat2 1 41558U 16033C 21091.82815924 .00002504 00000-0 85424-4 0 9996 2 41558 97.4009 189.6968 0013174 135.4346 17.3321 15.31217498269996 Lapan A3 1 41603U 16040E 21091.83210588 .00000211 00000-0 12859-4 0 9996 2 41603 97.2661 141.6300 0011636 272.8498 175.3319 15.19991061264945 Swayam 1 41607U 16040J 21091.10434839 .00002651 00000-0 10744-3 0 9997 2 41607 97.2765 149.2155 0011087 248.0633 111.9427 15.25459622265252 Pratham 1 41783U 16059A 21091.11872764 .00000077 00000-0 23948-4 0 9997 2 41783 97.9745 143.8366 0034695 128.5900 231.8418 14.63123956240945 AlSat 1N 1 41789U 16059G 21091.77486672 .00000137 00000-0 34558-4 0 9990 2 41789 97.9781 147.9761 0029660 112.5992 247.8342 14.64403243241221 ScatSat 1 41790U 16059H 21091.81101646 .00000040 00000-0 21492-4 0 9998 2 41790 98.3787 134.0729 0006451 108.5584 251.6301 14.50802136239033 TY-1 1 41844U 16066D 21091.85796620 .00001501 00000-0 61825-4 0 9999 2 41844 97.4011 102.8678 0016203 52.3967 68.0696 15.25567613244221 Pegasus-1 1 41846U 16066F 21091.10450756 .00000516 00000-0 86742-4 0 9996 2 41846 98.6196 149.5768 0367263 96.0654 268.2502 14.37989015230301 CAS-2T 1 41847U 16066G 21091.04236633 .00000187 00000-0 37397-4 0 9992 2 41847 98.6107 149.8167 0366461 91.4538 272.8651 14.38168308230759 EO-88 1 42017U 17008BX 21091.15458283 .00003117 00000-0 11755-3 0 9993 2 42017 97.3225 160.1322 0006756 37.6758 322.4954 15.27776788229458 CAS-4B 1 42759U 17034B 21091.84824602 .00000350 00000-0 34438-4 0 9993 2 42759 43.0173 242.2079 0008648 36.5095 117.4885 15.10136042209566 CAS-4A 1 42761U 17034D 21091.84322804 .00000369 00000-0 35529-4 0 9995 2 42761 43.0173 241.3421 0009000 38.1853 114.6166 15.10217418209561 UCLSat 1 42765U 17036A 21091.08145789 .00002250 00000-0 94038-4 0 9993 2 42765 97.2592 143.0624 0012777 91.9576 268.3125 15.24542206210383 NIUSat 1 42766U 17036B 21091.16163287 .00001842 00000-0 82176-4 0 9992 2 42766 97.2603 139.7901 0016912 88.8075 271.5099 15.22489560209454 LituanicaSAT 2 1 42768U 17036D 21091.09970628 .00004048 00000-0 16086-3 0 9998 2 42768 97.2664 143.6511 0015710 82.2524 278.0498 15.25757985209677 Aalto 1 1 42775U 17036L 21091.06717480 .00001426 00000-0 64342-4 0 9994 2 42775 97.2574 139.9829 0015351 88.2471 272.0524 15.22480672209423 URSA MAIOR 1 42776U 17036M 21091.08251411 .00001561 00000-0 69663-4 0 9995 2 42776 97.2588 140.4204 0015151 87.8189 272.4782 15.22725327209443 Max Valier Sat 1 42778U 17036P 21091.19473498 .00001773 00000-0 77319-4 0 9992 2 42778 97.2651 142.3094 0013763 89.9476 270.3338 15.23367663209522 Pegasus 1 42784U 17036V 21091.17161235 .00002185 00000-0 92474-4 0 9997 2 42784 97.2605 142.7133 0013322 92.8523 267.4240 15.24142242209583 NUDATSat 1 42787U 17036Y 21091.20663651 .00003557 00000-0 14114-3 0 9991 2 42787 97.2659 144.9058 0012466 83.9318 276.3344 15.25921485209552 SUCHAI 1 1 42788U 17036Z 21091.14363116 .00002766 00000-0 11386-3 0 9997 2 42788 97.2610 143.5769 0012840 90.9028 269.3682 15.24872219209709 SKCUBE 1 42789U 17036AA 21091.09443873 .00002326 00000-0 96883-4 0 9999 2 42789 97.2604 143.2775 0012764 91.6190 268.6510 15.24634212209600 VZLUSAT 1 1 42790U 17036AB 21091.19958601 .00003448 00000-0 13702-3 0 9996 2 42790 97.2634 144.8888 0012098 88.1754 272.0870 15.25901762209701 VENTA 1 1 42791U 17036AC 21091.20458287 .00002533 00000-0 10537-3 0 9991 2 42791 97.2601 143.4066 0012452 91.6817 268.5847 15.24598846209610 Robusta 1B 1 42792U 17036AD 21091.14067267 .00002593 00000-0 10694-3 0 9999 2 42792 97.2606 143.6720 0012338 91.5425 268.7226 15.24864287209643 D-SAT 1 42794U 17036AF 21091.54482749 .00000650 00000-0 60757-4 0 9999 2 42794 97.4683 115.4986 0127094 122.5981 238.7583 14.91496613205636 TechnoSat 1 42829U 17042E 21091.69338421 .00000130 00000-0 18298-4 0 9994 2 42829 97.4809 325.2584 0015382 47.8617 312.3907 14.91246439202243 QIKCOM-1 1 42983U 98067NF 21091.82520028 .00010358 00000-0 10673-3 0 9993 2 42983 51.6365 288.3479 0003403 67.3961 292.7394 15.65480805195392 AO-91 1 43017U 17073E 21091.30012614 .00000687 00000-0 58431-4 0 9999 2 43017 97.7123 358.3353 0255031 191.7620 167.7566 14.79410628181716 EcAMSat 1 43019U 98067NG 21090.94936463 .00031256 00000-0 20686-3 0 9995 2 43019 51.6384 264.5728 0002292 48.1082 312.0113 15.75250804277956 PICSAT 1 43132U 18004X 21091.25799958 .00002531 00000-0 10254-3 0 9999 2 43132 97.4135 166.4942 0010760 116.9341 243.2997 15.25540320178914 AO-92 1 43137U 18004AC 21091.24093505 .00002038 00000-0 84497-4 0 9991 2 43137 97.4120 166.0559 0010362 118.9477 241.2801 15.24990232178892 TianYi 2 1 43155U 18008A 21091.84251358 .00001487 00000-0 89453-4 0 9997 2 43155 97.4098 159.0932 0016073 229.2513 222.2001 15.12251122176495 Zhou Enlai 1 43156U 18008B 21091.83064037 .00001123 00000-0 69298-4 0 9995 2 43156 97.4139 158.9168 0013191 228.5099 263.7927 15.11839259176433 TianYi 6 1 43158U 18008D 21091.74769351 .00000999 00000-0 62975-4 0 9993 2 43158 97.4071 157.5166 0012228 229.6496 280.1073 15.11292408176351 S-Net D 1 43186U 18014G 21091.02224713 .00000880 00000-0 81399-4 0 9990 2 43186 97.6821 359.9835 0010474 350.5445 9.5578 14.97006898172715 S-Net B 1 43187U 18014H 21090.82161524 .00000864 00000-0 80088-4 0 9994 2 43187 97.6819 359.7557 0010487 351.1299 8.9736 14.97006075172682 S-Net A 1 43188U 18014J 21091.22265242 .00000919 00000-0 84856-4 0 9990 2 43188 97.6822 0.1910 0010452 349.8983 10.2027 14.97005724172749 S-Net C 1 43189U 18014K 21091.15629304 .00000920 00000-0 84883-4 0 9998 2 43189 97.6819 0.0778 0010454 350.1212 9.9803 14.97005869171284 FMN 1 1 43192U 18015A 21091.85668841 .00004690 00000-0 17668-3 0 9993 2 43192 97.4753 226.9345 0015589 148.6444 2.4292 15.27482565175890 Shaonian Xing 1 43199U 18015H 21091.85998417 .00003171 00000-0 12160-3 0 9990 2 43199 97.4529 224.3680 0016644 158.1372 1.3914 15.27127523175957 SurfSat 1 43614U 18070B 21091.76285656 .00005540 00000-0 13257-3 0 9997 2 43614 93.0238 274.1091 0012132 307.9751 52.0407 15.41416228142852 CP-7 DAVE 1 43615U 18070C 21091.18203021 .00005219 00000-0 12600-3 0 9994 2 43615 93.0239 273.8337 0012396 310.4104 49.6069 15.41146362142750 ELFIN-B 1 43616U 18070D 21091.27496615 .00008830 00000-0 19613-3 0 9991 2 43616 93.0197 273.9777 0012277 308.1604 51.8546 15.43619147142865 ELFIN-A 1 43617U 18070E 21091.45073543 .00009603 00000-0 21044-3 0 9993 2 43617 93.0249 274.8246 0011580 303.7370 56.2783 15.44022136142906 STARS-Me Mother 1 43640U 98067PQ 21091.01065596 .00095067 00000-0 40463-3 0 9999 2 43640 51.6286 275.7028 0001278 323.1762 36.9153 15.84477479141964 CubeBel 1 1 43666U 18083E 21091.85832926 .00001671 00000-0 82690-4 0 9995 2 43666 97.4631 121.1711 0016448 77.9965 94.7205 15.19090395134385 Changshagaoxin 1 43669U 18083H 21091.83782481 .00001217 00000-0 63218-4 0 9997 2 43669 97.4534 118.4597 0012443 73.5613 13.3802 15.17922689134269 Ten-Koh 1 43677U 18084G 21091.11574330 .00000166 00000-0 22909-4 0 9994 2 43677 97.9078 214.0111 0014614 291.4663 68.4996 14.90427935131782 PO-101 1 43678U 18084H 21091.85157138 .00000536 00000-0 58969-4 0 9995 2 43678 97.9099 216.7902 0008806 310.3662 49.6782 14.91729868132011 IRVINE 01 1 43693U 18088D 21091.20494777 .00005162 00000-0 20531-3 0 9991 2 43693 85.0334 246.2606 0015163 315.1687 44.8330 15.24913440132666 QO-100 1 43700U 18090A 21091.69047023 .00000132 00000-0 00000 0 0 9991 2 43700 0.0187 163.9859 0002729 246.9721 53.6480 1.00272235 8842 Reaktor Hello World 1 43743U 18096AA 21091.27268803 .00002670 00000-0 98705-4 0 9992 2 43743 97.3897 169.3765 0017261 184.6055 175.5029 15.28466315130340 MinXSS-2 1 43758U 18099A 21091.24994059 .00000239 00000-0 26446-4 0 9999 2 43758 97.6725 164.0265 0014357 310.3301 49.6666 14.95966413126970 AO-95 1 43770U 18099N 21091.15930911 .00000498 00000-0 50376-4 0 9996 2 43770 97.6714 163.0338 0013401 321.0959 38.9296 14.95248789126901 RANGE-B 1 43772U 18099Q 21091.26962892 .00000954 00000-0 91203-4 0 9994 2 43772 97.6792 164.0205 0012711 305.8433 54.1606 14.95524549126921 RANGE-A 1 43773U 18099R 21091.15965279 .00000251 00000-0 27979-4 0 9994 2 43773 97.6650 162.4327 0012193 307.4161 52.5949 14.95160902126899 MOVE-II 1 43780U 18099Y 21091.15091539 .00001218 00000-0 11418-3 0 9995 2 43780 97.6729 163.4747 0012088 318.0025 42.0268 14.95807169126915 SNUSat 2 1 43782U 18099AA 21091.13774019 .00000847 00000-0 81572-4 0 9992 2 43782 97.6710 163.3270 0011321 305.8921 54.1249 14.95492986126915 SnugLite 1 43784U 18099AC 21091.15242779 .00000811 00000-0 78039-4 0 9994 2 43784 97.6678 163.0883 0013732 314.2925 45.7169 14.95614513126934 ITASat 1 1 43786U 18099AE 21091.16085506 .00000423 00000-0 43246-4 0 9991 2 43786 97.6733 163.6596 0013916 313.5637 46.4428 14.95553421126937 EAGLET 1 1 43790U 18099AJ 21091.14694585 .00000785 00000-0 75163-4 0 9991 2 43790 97.6720 164.0266 0012194 318.4654 41.5639 14.95920778126659 ESEO 1 43792U 18099AL 21091.18738523 -.00000035 00000-0 20181-5 0 9998 2 43792 97.6685 163.7172 0012211 314.5353 45.4870 14.95707286126710 CSIM 1 43793U 18099AM 21091.25381828 .00000582 00000-0 56277-4 0 9999 2 43793 97.6707 164.0478 0011657 309.1807 50.8378 14.96458861126723 Astrocast 0.1 1 43798U 18099AS 21091.44126308 .00000040 00000-0 86778-5 0 9994 2 43798 97.6725 164.4831 0010998 294.7020 65.3056 14.96086986127009 JO-97 1 43803U 18099AX 21091.13706018 .00000851 00000-0 81354-4 0 9993 2 43803 97.6691 163.3980 0013770 312.9040 47.1024 14.95780075126930 Suomi 100 1 43804U 18099AY 21091.40874083 .00000958 00000-0 90919-4 0 9997 2 43804 97.6689 163.6366 0013792 312.3077 47.6974 14.95756680126986 Al Farabi 2 1 43805U 18099AZ 21091.28679126 .00001341 00000-0 12461-3 0 9997 2 43805 97.6692 163.7009 0013504 312.2759 47.7340 14.95957082126979 CHOMPTT 1 43855U 18104G 21091.23007868 .00001850 00000-0 74890-4 0 9992 2 43855 85.0396 344.6957 0019486 73.3709 286.9672 15.23755579127338 ISAT 1 43879U 18111D 21091.84085766 .00001301 00000-0 11925-3 0 9996 2 43879 97.6904 0.4368 0013400 7.6542 352.4875 14.96554433121597 UWE-4 1 43880U 18111E 21091.17258409 .00000674 00000-0 63848-4 0 9994 2 43880 97.6919 0.2094 0012663 11.0921 349.0577 14.96788389123524 Sparrow 1 43881U 18111F 21091.21297101 .00000850 00000-0 79129-4 0 9997 2 43881 97.6918 0.3660 0012503 7.3920 352.7483 14.96834001123535 Lume 1 1 43908U 18111AJ 21091.15481098 .00001980 00000-0 79461-4 0 9994 2 43908 97.2414 348.3159 0019852 200.8735 159.1695 15.25957102125883 FO-98 1 43933U 19003B 21091.05457591 .00012811 00000-0 51221-3 0 9991 2 43933 97.1918 135.4154 0014897 310.3537 49.6399 15.25129876122307 FO-99 1 43937U 19003F 21091.05598914 .00002174 00000-0 88314-4 0 9995 2 43937 97.1862 137.3141 0021576 288.1887 71.7003 15.25414085122462 MYSat 1 1 44045U 18092F 21091.22762948 .00006324 00000-0 17021-3 0 9999 2 44045 51.6380 82.8182 0009949 288.6519 71.3385 15.39149774119560 AstroCast 0.2 1 44083U 19018F 21091.73776317 .00001900 00000-0 85462-4 0 9991 2 44083 97.3814 154.2360 0011561 237.2167 122.7957 15.22277835111228 AISTechSat 3 1 44103U 19018AB 21091.78127856 .00001361 00000-0 59306-4 0 9996 2 44103 97.3685 154.6291 0011550 250.5912 205.4570 15.23855513111336 AISat 1 1 44104U 19018AC 21091.20142738 .00001555 00000-0 50960-4 0 9992 2 44104 97.4302 168.2547 0055337 270.2961 89.1940 15.31824888111847 Raavana-1 1 44329U 98067QE 21091.01417169 .00040638 00000-0 32983-3 0 9993 2 44329 51.6353 322.6769 0002677 1.2485 358.8519 15.70307207101962 Uguisu 1 44330U 98067QF 21091.05474064 .00040837 00000-0 33570-3 0 9990 2 44330 51.6328 322.8739 0002694 0.9135 359.1867 15.69997199101943 NepaliSat-1 1 44331U 98067QG 21091.00671600 .00040766 00000-0 33147-3 0 9992 2 44331 51.6332 322.5527 0002668 6.3977 353.7054 15.70262035101951 Prox-1 1 44339U 19036A 21091.19989803 .00001193 00000-0 23117-3 0 9993 2 44339 24.0002 100.7153 0011638 58.8703 301.2929 14.53460198 93942 Oculus-ASR 1 44348U 19036K 21090.93875813 .00023622 00000-0 32801-3 0 9990 2 44348 28.5125 288.8668 0338323 149.1629 212.9306 15.10004685 97175 Armadillo 1 44352U 19036P 21090.81049024 .00037441 00000-0 49298-3 0 9991 2 44352 28.5286 273.7863 0311800 172.1238 188.4400 15.16441024 97261 NO-104 1 44354U 19036R 21091.76882161 .00026676 00000-0 36249-3 0 9995 2 44354 28.5282 277.5833 0333364 165.6807 195.3501 15.11472424 97347 NO-103 1 44355U 19036S 21091.43859310 .00049239 00000-0 57295-3 0 9994 2 44355 28.5265 246.2536 0280458 216.7370 141.3698 15.25137590 97637 CP9 1 44360U 19036X 21091.41967721 .00074047 -53253-5 58777-3 0 9999 2 44360 28.5070 198.0081 0220486 297.0909 60.7356 15.43965419 97983 Move-IIb 1 44398U 19038N 21091.48678443 .00002217 00000-0 12729-3 0 9992 2 44398 97.5743 55.8886 0023405 212.0822 147.8987 15.13363807 96125 SONATE 1 44400U 19038Q 21091.50517821 .00000731 00000-0 45653-4 0 9993 2 44400 97.5812 55.8376 0023924 212.1911 147.7855 15.12416152 96108 BeeSat 9 1 44412U 19038AC 21091.36486829 .00001622 00000-0 95083-4 0 9995 2 44412 97.5801 55.9174 0021154 216.4430 143.5362 15.13057927 95795 JAISAT-1 1 44419U 19038F 21091.16094568 .00001598 00000-0 92556-4 0 9999 2 44419 97.5804 56.2007 0020049 215.3201 144.6703 15.13541309 96109 LightSail-2 1 44420U 19036AC 21091.27161053 .00010710 00000-0 21649-2 0 9994 2 44420 24.0084 84.5149 0021385 77.5783 282.7101 14.59373482 92267 Taurus 1 1 44530U 19059C 21091.85049029 .00000618 00000-0 18607-3 0 9990 2 44530 98.5504 181.5551 0013300 21.5944 338.5797 14.45969892 82017 Duchifat 3 1 44854U 19089C 21091.68114790 .00000814 00000-0 71551-4 0 9997 2 44854 36.9640 194.6184 0008495 246.2793 113.7058 14.99403675 71570 OPS-SAT 1 44878U 19092F 21091.25010363 .00001823 00000-0 97316-4 0 9999 2 44878 97.4739 275.8819 0015381 79.6182 280.6784 15.16310347 71131 TO-108 1 44881U 19093C 21091.80624847 .00000100 00000-0 19513-4 0 9993 2 44881 97.9276 171.4554 0014978 176.7525 183.3781 14.81434773 69385 FloripaSat 1 1 44885U 19093G 21091.80245438 .00000408 00000-0 57766-4 0 9995 2 44885 97.9285 171.9246 0014581 184.9022 175.2045 14.82239549 69417 RS-44 1 44909U 19096E 21091.22605267 .00000027 00000-0 71100-4 0 9996 2 44909 82.5239 164.1264 0216174 273.6683 83.9722 12.79709239 58965 SwampSat-2 1 45115U 19071E 21091.25385410 .00051107 00000-0 98164-3 0 9990 2 45115 51.6387 38.7598 0008755 33.0598 327.0935 15.47405525 65469 HO-107 1 45119U 19071J 21091.42630439 .00005242 00000-0 16150-3 0 9991 2 45119 51.6425 50.2380 0011782 15.1520 344.9814 15.35259466 65332 Phoenix 1 45258U 98067RB 21091.29285505 .00011166 00000-0 16938-3 0 9998 2 45258 51.6410 354.5965 0004808 333.4167 26.6577 15.55134075 63195 AztechSat-1 1 45261U 98067RE 21091.19381576 .00031820 00000-0 37436-3 0 9991 2 45261 51.6385 348.6895 0004874 353.7941 6.2991 15.61112604 63290 QARMAN 1 45263U 98067RG 21091.21222402 .00023907 00000-0 31156-3 0 9998 2 45263 51.6401 351.8180 0005122 348.4763 11.6112 15.58580571 63286 Quetzal 1 1 45598U 98067RL 21091.74680742 .00020586 00000-0 28540-3 0 9995 2 45598 51.6408 352.4015 0002739 90.4862 269.6444 15.57029330 52598 BY70-2 1 45857U 20042B 21091.88516752 .00001452 00000-0 21397-3 0 9999 2 45857 97.9866 168.4299 0012941 102.4095 257.8544 14.76814140 40244 UPMSat 2 1 46276U 20061E 21091.14712423 .00000754 00000-0 42249-4 0 9992 2 46276 97.4376 166.4650 0000224 99.2776 260.8482 15.16353458 31824 AmicalSat 1 46287U 20061R 21091.19502001 .00000983 00000-0 63767-4 0 9990 2 46287 97.4928 166.1423 0003134 33.4124 326.7303 15.10328541 31681 SALSAT 1 46495U 20068K 21091.25582938 -.00000061 00000-0 99758-7 0 9992 2 46495 97.6868 29.2396 0016883 339.3561 20.6982 15.03385189 27730 BY70-3 1 46839U 20079N 21091.84615146 .00003598 00000-0 11458-3 0 9993 2 46839 97.2455 167.2309 0008852 116.3597 20.2851 15.33161817 22465 SPOC 1 46921U 98067RR 21091.20936961 .00012042 00000-0 19728-3 0 9990 2 46921 51.6436 0.8151 0002749 137.9378 222.1824 15.52912739 22856 Bobcat-1 1 46922U 98067RS 21091.03539563 .00014170 00000-0 22227-3 0 9991 2 46922 51.6443 1.1619 0002538 139.1136 221.0045 15.53955934 22791 Neutron-1 1 46923U 98067RT 21091.34755789 .00011613 00000-0 19129-3 0 9992 2 46923 51.6436 0.2362 0002539 148.9050 211.2090 15.52799994 22896 CAPE 3 1 47309U 21002A 21091.05619302 .00001269 00000-0 69386-4 0 9991 2 47309 60.6820 221.2526 0028437 356.1962 3.8903 15.20495014 11111 AO-109 1 47311U 21002C 21091.07823914 .00001441 00000-0 75341-4 0 9992 2 47311 60.6872 220.7891 0023998 2.6457 357.4751 15.21415631 11093 MiTEE 1 1 47314U 21002F 21090.82482026 .00003069 00000-0 14162-3 0 9993 2 47314 60.6859 221.2322 0021962 349.4811 10.5813 15.22679467 11086 ExoCube 2 1 47319U 21002L 21091.09571551 .00001983 00000-0 10004-3 0 9994 2 47319 60.6843 220.8627 0025951 3.6110 356.5159 15.21041889 11064 UVSQ-SAT 1 47438U 21006AB 21091.13780475 .00001181 00000-0 70574-4 0 9991 2 47438 97.4960 153.7201 0012933 12.6002 347.5550 15.12964814 10361 YUSAT 1 1 47439U 21006AC 21091.13909219 .00001245 00000-0 74242-4 0 9998 2 47439 97.4962 153.7197 0012814 12.8499 347.3056 15.12937913 10367 SOMP 2b 1 47445U 21006AJ 21091.21041736 .00001121 00000-0 67429-4 0 9997 2 47445 97.4933 153.7493 0012663 16.1730 343.9902 15.12814547 10378 IDEASSat 1 47458U 21006AX 21091.21634562 .00001108 00000-0 66981-4 0 9993 2 47458 97.5022 153.8261 0011690 14.9977 345.1598 15.12677754 10376 RSP-01 1 47925U 98067SB 21091.04158685 .00010726 00000-0 19545-3 0 9990 2 47925 51.6444 4.1806 0003106 108.5720 251.5607 15.50029612 2767 TAUSAT-1 1 47926U 98067SC 21091.03882139 .00013458 00000-0 24051-3 0 9991 2 47926 51.6442 4.1624 0004446 109.9812 250.1656 15.50334651 2759 Tsuru 1 47927U 98067SD 21091.75078819 .00011889 00000-0 21574-3 0 9996 2 47927 51.6447 0.6670 0003153 108.8447 251.2884 15.50031642 2875 STARS-EC 1 47928U 98067SE 21091.23547592 .00010627 00000-0 19408-3 0 9991 2 47928 51.6441 3.2241 0006178 177.9059 182.1957 15.49968740 2777 Maya-2 1 47929U 98067SF 21091.17015047 .00011176 00000-0 20315-3 0 9999 2 47929 51.6447 3.5394 0003250 104.8150 255.3199 15.50050307 2746 OPUSAT-II 1 47930U 98067SG 21091.04131574 .00010051 00000-0 18374-3 0 9994 2 47930 51.6449 4.1784 0003320 101.8909 258.2452 15.50019032 2763 CubeSX-Sirius-HSE 1 47951U 21022V 21091.69376984 .00000469 00000-0 36738-4 0 9998 2 47951 97.5639 355.3675 0020885 210.9940 208.6135 15.05537712 1506 /EX
